{"data":{"norad_id":62096,"intl_designator":"2024-220J","name":"STARLINK-11303 [DTC]","alt_names":[],"object_type":"PAYLOAD","status":"ACTIVE","operator":null,"country":"US","launch_date":"2024-11-25","launch_site_code":"AFETR","launch_vehicle":null,"mission":null,"orbit_class":"UNKNOWN","rcs_meters":null,"size_class":null,"mass_kg":null,"dimensions":null,"purposes":["comms"],"wikipedia_slug":null,"has_3d_model":false,"image_url":null,"decayed_at":null,"tle_current":{"epoch":"2026-05-24T20:23:34.442880Z","epoch_age_seconds":81193,"freshness":"FRESH","line1":"1 62096U 24220J   26144.84970420  .00218279  00000+0  16515-2 0  9992","line2":"2 62096  42.9989 303.7840 0001861 270.0497  90.0157 15.70966148 87033","mean_motion":15.70966148,"eccentricity":0.0001861,"inclination_deg":42.9989,"raan_deg":303.784,"arg_perigee_deg":270.0497,"mean_anomaly_deg":90.0157,"bstar":0.0016515,"rev_number":8703,"period_min":91.663337356649,"perigee_km":354.88128317084,"apogee_km":357.38777903472,"semimajor_km":6734.2715311028,"source":"CELESTRAK","updated_at":"2026-05-25T13:38:19.558622Z"}}}